User: anonymous   Login
Location: Unspecified
(0.0000°N, 0.0000°E)
Time: 10:13:23
(UTC+00:00)
Language:

COSMOS 2463 - Orbit

View from above orbital plane
View from above orbital plane
View from above satellite
View from above satellite

Ground track
Ground track

The orbit data is extracted from the following two-line orbital elements,

1 36519U 10017A   17116.94571078 +.00000053 +00000-0 +41937-4 0  9996
2 36519 082.9638 181.7783 0037153 033.0888 327.2581 13.71410922350440
Epoch (UTC): 26 April 2017 22:41:49
Eccentricity: 0.0037153
inclination: 82.9638°
perigee height: 967 km
apogee height: 1022 km
right ascension of ascending node: 181.7783°
argument of perigee: 33.0888°
revolutions per day: 13.71410922
mean anomaly at epoch: 327.2581°
orbit number at epoch: 35044

The dashed part of the orbit path shows where the satellite is in the earth's shadow,  

DLR